Location: Whelan
(46.7841°N, 117.1166°W)
Time: 02:15:57
(UTC+00:00)

N. Korean satellite - Visible Passes

Search period start: 01 February 2023 00:00
Search period end: 11 February 2023 00:00
Orbit: 407 x 443 km, 97.3° (Epoch: 31 January)

Date Brightness Start Highest point End Pass type
(mag) Time Alt. Az. Time Alt. Az. Time Alt. Az.
01 Feb 7.0 13:03:31 10° NNE 13:06:41 53° E 13:09:52 10° S visible
01 Feb 8.4 14:37:53 10° NW 14:38:32 10° WNW 14:39:10 10° WNW visible
02 Feb 9.4 12:21:56 10° NE 12:23:57 15° E 12:25:58 10° SE visible
02 Feb 7.0 13:53:25 10° N 13:56:18 31° WNW 13:59:13 10° SW visible
03 Feb 6.6 13:10:33 10° NNE 13:13:47 67° ESE 13:17:01 10° S visible
04 Feb 9.1 12:28:36 10° NE 12:30:58 19° E 12:33:19 10° SE visible
04 Feb 7.3 14:00:29 10° NNW 14:03:14 26° WNW 14:05:59 10° SW visible
05 Feb 6.2 13:17:21 10° NNE 13:20:37 84° ESE 13:23:52 10° SSW visible
06 Feb 8.8 12:35:04 10° NE 12:37:41 22° E 12:40:19 10° SSE visible
06 Feb 7.5 14:07:18 10° NNW 14:09:52 22° WNW 14:12:28 10° WSW visible
07 Feb 6.1 13:23:55 10° N 13:27:10 79° WNW 13:30:26 10° SSW visible
08 Feb 8.5 12:41:21 10° NE 12:44:09 26° E 12:46:59 10° SSE visible
08 Feb 7.7 14:13:53 10° NNW 14:16:15 19° WNW 14:18:38 10° WSW visible
09 Feb 6.2 13:30:13 10° N 13:33:27 64° WNW 13:36:42 10° SSW visible
10 Feb 8.2 12:47:22 10° NNE 12:50:21 31° E 12:53:19 10° SSE visible
10 Feb 7.9 14:20:14 10° NNW 14:22:21 16° WNW 14:24:29 10° WSW visible
